EW5967 Weather Reports


Display with metric or nautical units.
time (UTC)temp
F
wind
direction
speed
MPH
gust
MPH
rain 1hr
in
rain 24hr
in
rain mn
in
humidity
%
barometer
mb
20260509032024 86 270 4.0 10.0 0.00 0.00 0.00 12 1003.6
20260509031524 87 273 3.0 10.0 0.00 0.00 0.00 12 1003.5
20260509031024 87 265 4.0 9.0 0.00 0.00 0.00 12 1003.5
20260509030524 87 271 3.0 9.0 0.00 0.00 0.00 12 1003.5
20260509030024 87 267 2.0 8.0 0.00 0.00 0.00 12 1003.4
20260509025523 87 265 2.0 9.0 0.00 0.00 0.00 11 1003.4
20260509025023 87 234 4.0 10.0 0.00 0.00 0.00 11 1003.3
20260509024523 87 263 2.0 10.0 0.00 0.00 0.00 11 1003.3
20260509024023 88 265 4.0 11.0 0.00 0.00 0.00 11 1003.2
20260509023523 88 277 7.0 11.0 0.00 0.00 0.00 11 1003.2
20260509023023 88 261 4.0 11.0 0.00 0.00 0.00 11 1003.1
20260509022522 88 267 5.0 12.0 0.00 0.00 0.00 11 1003.1
20260509022022 88 259 6.0 11.0 0.00 0.00 0.00 10 1003.0
20260509021523 88 256 3.0 9.0 0.00 0.00 0.00 10 1003.0
20260509021021 89 265 4.0 8.0 0.00 0.00 0.00 10 1003.0
20260509020521 89 206 2.0 8.0 0.00 0.00 0.00 10 1003.0
20260509020021 89 163 1.0 5.0 0.00 0.00 0.00 10 1003.0
20260509015522 89 159 1.0 5.0 0.00 0.00 0.00 10 1003.0
20260509015021 90 221 1.0 4.0 0.00 0.00 0.00 10 1003.0
20260509014521 90 72 0.0 2.0 0.00 0.00 0.00 9 1003.2
20260509014020 90 69 0.0 5.0 0.00 0.00 0.00 9 1003.1
20260509013524 90 69 3.0 5.0 0.00 0.00 0.00 9 1003.1
20260509013022 91 29 0.0 5.0 0.00 0.00 0.00 9 1003.0
20260509012520 91 19 1.0 8.0 0.00 0.00 0.00 9 1003.0
20260509012020 91 38 1.0 8.0 0.00 0.00 0.00 8 1003.0
20260509011520 91 38 4.0 8.0 0.00 0.00 0.00 9 1003.1
20260509011019 91 15 1.0 8.0 0.00 0.00 0.00 9 1003.1
20260509010517 91 9 4.0 10.0 0.00 0.00 0.00 9 1003.2
20260509010020 91 18 4.0 10.0 0.00 0.00 0.00 9 1003.2
20260509005517 91 48 3.0 10.0 0.00 0.00 0.00 9 1003.3
20260509005016 91 13 3.0 10.0 0.00 0.00 0.00 9 1003.2
20260509004519 92 51 5.0 10.0 0.00 0.00 0.00 9 1003.3
20260509004018 92 36 0.0 10.0 0.00 0.00 0.00 9 1003.3
20260509003518 92 30 4.0 10.0 0.00 0.00 0.00 9 1003.3
20260509003016 92 11 6.0 10.0 0.00 0.00 0.00 8 1003.4
20260509002515 92 30 4.0 9.0 0.00 0.00 0.00 8 1003.5
20260509002012 92 5 5.0 10.0 0.00 0.00 0.00 8 1003.5
20260509001512 92 34 3.0 12.0 0.00 0.00 0.00 8 1003.4
20260509001012 92 34 5.0 12.0 0.00 0.00 0.00 8 1003.5
20260509000511 92 13 5.0 9.0 0.00 0.00 0.00 8 1003.5
20260509000010 93 45 1.0 16.0 0.00 0.00 0.00 9 1003.5
20260508235511 93 360 6.0 16.0 0.00 0.00 0.00 8 1003.5
20260508235010 92 24 4.0 11.0 0.00 0.00 0.00 9 1003.4
20260508234509 92 19 7.0 15.0 0.00 0.00 0.00 8 1003.4
20260508234008 92 35 7.0 15.0 0.00 0.00 0.00 9 1003.5
20260508233508 92 32 5.0 14.0 0.00 0.00 0.00 9 1003.5
20260508233007 92 54 8.0 14.0 0.00 0.00 0.00 9 1003.5
20260508232506 92 131 6.0 16.0 0.00 0.00 0.00 9 1003.5
20260508232010 93 28 9.0 16.0 0.00 0.00 0.00 9 1003.6
20260508231508 92 91 5.0 9.0 0.00 0.00 0.00 10 1003.5
20260508231005 93 42 4.0 8.0 0.00 0.00 0.00 9 1003.7
20260508230503 93 101 0.0 5.0 0.00 0.00 0.00 10 1003.7
20260508230004 92 101 1.0 8.0 0.00 0.00 0.00 10 1003.8
20260508225503 92 75 4.0 8.0 0.00 0.00 0.00 10 1003.9
20260508225002 92 78 2.0 9.0 0.00 0.00 0.00 10 1003.9
20260508224501 92 100 5.0 9.0 0.00 0.00 0.00 10 1003.9
20260508224102 92 98 3.0 9.0 0.00 0.00 0.00 10 1004.0
20260508224000 92 72 2.0 5.0 0.00 0.00 0.00 10 1004.0
20260508223600 92 75 1.0 6.0 0.00 0.00 0.00 10 1004.0
20260508223059 92 82 0.0 4.0 0.00 0.00 0.00 10 1004.2
20260508222557 92 102 1.0 4.0 0.00 0.00 0.00 10 1004.3
20260508222057 92 103 1.0 4.0 0.00 0.00 0.00 10 1004.4
20260508221556 92 103 1.0 11.0 0.00 0.00 0.00 9 1004.5
20260508221056 92 285 1.0 11.0 0.00 0.00 0.00 9 1004.7
20260508220554 92 355 2.0 5.0 0.00 0.00 0.00 9 1004.7
20260508220052 92 355 0.0 5.0 0.00 0.00 0.00 9 1004.8
20260508215552 91 19 2.0 8.0 0.00 0.00 0.00 10 1004.9
20260508215051 91 44 3.0 8.0 0.00 0.00 0.00 9 1005.0
20260508214602 92 21 2.0 5.0 0.00 0.00 0.00 9 1005.0
20260508214050 92 67 2.0 7.0 0.00 0.00 0.00 10 1005.1
20260508213548 92 78 1.0 8.0 0.00 0.00 0.00 10 1005.1
20260508213049 91 88 3.0 8.0 0.00 0.00 0.00 10 1005.2
20260508212548 92 271 3.0 9.0 0.00 0.00 0.00 10 1005.4
20260508212048 91 169 1.0 9.0 0.00 0.00 0.00 10 1005.4
20260508211546 92 168 4.0 9.0 0.00 0.00 0.00 10 1005.5
20260508211047 92 86 2.0 6.0 0.00 0.00 0.00 10 1005.5
20260508210548 92 31 2.0 5.0 0.00 0.00 0.00 10 1005.6
20260508210047 91 90 2.0 8.0 0.00 0.00 0.00 10 1005.6
20260508205544 92 51 4.0 8.0 0.00 0.00 0.00 10 1005.6
20260508205043 91 97 0.0 12.0 0.00 0.00 0.00 10 1005.8
20260508204543 91 20 3.0 12.0 0.00 0.00 0.00 10 1005.9
20260508204042 91 29 3.0 11.0 0.00 0.00 0.00 10 1005.8
20260508203540 91 5 5.0 10.0 0.00 0.00 0.00 10 1005.9
20260508203041 91 50 3.0 7.0 0.00 0.00 0.00 10 1006.0
20260508202539 91 59 1.0 6.0 0.00 0.00 0.00 10 1006.2
20260508202039 91 59 3.0 6.0 0.00 0.00 0.00 11 1006.2
20260508201539 91 102 3.0 6.0 0.00 0.00 0.00 10 1006.2
20260508201040 90 101 1.0 6.0 0.00 0.00 0.00 10 1006.3
20260508200537 90 49 2.0 9.0 0.00 0.00 0.00 11 1006.4
20260508200041 90 62 1.0 9.0 0.00 0.00 0.00 10 1006.5
20260508195535 91 132 1.0 5.0 0.00 0.00 0.00 10 1006.6
20260508195035 91 61 2.0 9.0 0.00 0.00 0.00 10 1006.7
20260508194535 91 261 2.0 9.0 0.00 0.00 0.00 10 1006.7
20260508194035 91 237 2.0 8.0 0.00 0.00 0.00 11 1006.7
20260508193534 90 48 1.0 6.0 0.00 0.00 0.00 10 1006.7
20260508193043 92 15 2.0 9.0 0.00 0.00 0.00 10 1006.9
20260508192533 91 336 3.0 7.0 0.00 0.00 0.00 10 1006.9
20260508192036 91 46 2.0 6.0 0.00 0.00 0.00 10 1006.9
20260508191544 91 325 3.0 10.0 0.00 0.00 0.00 10 1006.9
20260508191033 91 37 3.0 10.0 0.00 0.00 0.00 10 1007.0
20260508190532 91 355 1.0 6.0 0.00 0.00 0.00 11 1007.0
20260508190047 90 265 2.0 8.0 0.00 0.00 0.00 11 1007.1
20260508185534 90 315 3.0 10.0 0.00 0.00 0.00 11 1007.1
20260508185030 90 73 4.0 10.0 0.00 0.00 0.00 11 1007.2
20260508184534 90 69 3.0 12.0 0.00 0.00 0.00 11 1007.3
20260508184033 90 73 5.0 12.0 0.00 0.00 0.00 11 1007.5
20260508183529 91 51 3.0 9.0 0.00 0.00 0.00 10 1007.5
20260508183037 90 340 3.0 10.0 0.00 0.00 0.00 11 1007.6
20260508182529 90 5 3.0 13.0 0.00 0.00 0.00 11 1007.6
20260508182027 89 336 6.0 13.0 0.00 0.00 0.00 11 1007.6
20260508181526 89 10 3.0 9.0 0.00 0.00 0.00 11 1007.6
20260508181026 88 15 4.0 12.0 0.00 0.00 0.00 11 1007.6
20260508180525 88 9 7.0 12.0 0.00 0.00 0.00 11 1007.8
20260508180025 88 36 5.0 12.0 0.00 0.00 0.00 11 1007.7
20260508175525 88 65 5.0 12.0 0.00 0.00 0.00 11 1007.7
20260508175025 89 63 4.0 11.0 0.00 0.00 0.00 12 1007.7
20260508174523 89 9 6.0 11.0 0.00 0.00 0.00 11 1007.7
20260508174023 88 5 5.0 11.0 0.00 0.00 0.00 13 1007.8
20260508173525 88 9 5.0 10.0 0.00 0.00 0.00 13 1007.8
20260508173022 88 53 5.0 10.0 0.00 0.00 0.00 13 1007.9
20260508172524 88 38 5.0 10.0 0.00 0.00 0.00 13 1007.9
20260508172020 87 84 4.0 9.0 0.00 0.00 0.00 13 1007.9
20260508171521 87 56 4.0 9.0 0.00 0.00 0.00 13 1008.0
20260508171020 87 63 2.0 9.0 0.00 0.00 0.00 13 1008.0
20260508170519 87 28 3.0 8.0 0.00 0.00 0.00 13 1008.1
20260508170030 87 22 3.0 8.0 0.00 0.00 0.00 13 1008.1
20260508165520 86 34 3.0 10.0 0.00 0.00 0.00 13 1008.0
20260508165021 87 5 4.0 10.0 0.00 0.00 0.00 13 1008.1
20260508164524 87 19 1.0 6.0 0.00 0.00 0.00 13 1008.1
20260508164017 87 46 1.0 6.0 0.00 0.00 0.00 14 1008.1
20260508163517 87 266 0.0 2.0 0.00 0.00 0.00 13 1008.2
20260508163017 86 266 0.0 2.0 0.00 0.00 0.00 14 1008.1
20260508162515 86 266 0.0 2.0 0.00 0.00 0.00 13 1008.1
20260508162014 85 266 0.0 3.0 0.00 0.00 0.00 14 1008.0
20260508161514 85 267 0.0 3.0 0.00 0.00 0.00 14 1008.1
20260508161013 85 267 0.0 3.0 0.00 0.00 0.00 14 1008.0
20260508160512 85 267 1.0 3.0 0.00 0.00 0.00 14 1008.0
20260508160012 85 267 0.0 2.0 0.00 0.00 0.00 14 1007.9
20260508155512 84 267 0.0 4.0 0.00 0.00 0.00 14 1007.9
20260508155010 85 267 1.0 3.0 0.00 0.00 0.00 14 1007.9
20260508154509 84 266 0.0 2.0 0.00 0.00 0.00 14 1007.9
20260508154008 84 266 0.0 2.0 0.00 0.00 0.00 14 1008.0
20260508153508 84 266 0.0 2.0 0.00 0.00 0.00 14 1008.0
20260508153014 84 267 0.0 2.0 0.00 0.00 0.00 14 1008.0
20260508152511 84 267 0.0 2.0 0.00 0.00 0.00 14 1008.0
20260508152010 83 267 0.0 1.0 0.00 0.00 0.00 15 1008.0
20260508151506 82 267 0.0 3.0 0.00 0.00 0.00 15 1008.0
20260508151006 82 266 0.0 3.0 0.00 0.00 0.00 16 1008.1
20260508150505 82 266 0.0 3.0 0.00 0.00 0.00 16 1008.0
20260508150006 82 275 0.0 3.0 0.00 0.00 0.00 15 1008.1
20260508145505 82 275 0.0 0.0 0.00 0.00 0.00 15 1008.0
20260508145005 83 275 0.0 0.0 0.00 0.00 0.00 15 1008.0
20260508144507 83 275 0.0 0.0 0.00 0.00 0.00 16 1008.0
20260508144002 83 275 0.0 0.0 0.00 0.00 0.00 15 1007.9
20260508143501 82 275 0.0 0.0 0.00 0.00 0.00 15 1008.0
20260508143102 82 276 0.0 0.0 0.00 0.00 0.00 17 1007.9
20260508142559 82 276 0.0 0.0 0.00 0.00 0.00 17 1007.9
20260508142058 81 276 0.0 0.0 0.00 0.00 0.00 17 1007.8
20260508141606 81 276 0.0 0.0 0.00 0.00 0.00 17 1007.9
20260508141056 80 276 0.0 0.0 0.00 0.00 0.00 18 1007.8
20260508140554 79 275 0.0 0.0 0.00 0.00 0.00 18 1007.7
20260508140053 78 275 0.0 0.0 0.00 0.00 0.00 17 1007.6
20260508135552 77 275 0.0 0.0 0.00 0.00 0.00 18 1007.7
20260508135050 77 275 0.0 1.0 0.00 0.00 0.00 18 1007.6
20260508134552 76 275 0.0 1.0 0.00 0.00 0.00 19 1007.6
20260508134051 76 275 0.0 1.0 0.00 0.00 0.00 18 1007.6
20260508133549 75 275 0.0 2.0 0.00 0.00 0.00 19 1007.4
20260508133048 75 275 0.0 3.0 0.00 0.00 0.00 18 1007.4
20260508132548 74 275 0.0 2.0 0.00 0.00 0.00 18 1007.2
20260508132048 73 275 0.0 1.0 0.00 0.00 0.00 18 1007.2
20260508131558 73 275 0.0 1.0 0.00 0.00 0.00 19 1007.2
20260508131047 72 275 0.0 0.0 0.00 0.00 0.00 19 1007.1
20260508130550 72 275 0.0 1.0 0.00 0.00 0.00 19 1007.0
20260508130045 71 275 0.0 2.0 0.00 0.00 0.00 19 1007.0
20260508125546 71 275 0.0 2.0 0.00 0.00 0.00 19 1007.0
20260508125045 71 275 0.0 3.0 0.00 0.00 0.00 19 1007.0
20260508124544 71 275 0.0 3.0 0.00 0.00 0.00 19 1006.9
20260508124043 71 275 0.0 3.0 0.00 0.00 0.00 19 1006.8
20260508123543 72 275 0.0 2.0 0.00 0.00 0.00 18 1006.8
20260508123042 72 275 1.0 2.0 0.00 0.00 0.00 18 1006.8
20260508122544 72 275 0.0 2.0 0.00 0.00 0.00 18 1006.7
20260508122043 73 275 1.0 2.0 0.00 0.00 0.00 17 1006.8
20260508121542 72 275 1.0 3.0 0.00 0.00 0.00 18 1006.8
20260508121042 72 275 0.0 3.0 0.00 0.00 0.00 18 1006.9
20260508120539 72 275 1.0 4.0 0.00 0.00 0.00 18 1006.7
20260508120052 73 275 1.0 4.0 0.00 0.00 0.00 17 1006.8
20260508115538 73 275 0.0 2.0 0.00 0.00 0.00 17 1006.8
20260508115037 73 275 1.0 2.0 0.00 0.00 0.00 17 1006.7
20260508114551 72 275 0.0 3.0 0.00 0.00 0.00 17 1006.7
20260508114037 73 275 1.0 3.0 0.00 0.00 0.00 17 1006.7
20260508113537 73 275 1.0 3.0 0.00 0.00 0.00 17 1006.7
20260508113038 73 275 0.0 2.0 0.00 0.00 0.00 17 1006.7
20260508112636 72 275 0.0 2.0 0.00 0.00 0.00 17 1006.7
20260508112036 73 275 0.0 3.0 0.00 0.00 0.00 17 1006.7
20260508111537 73 275 1.0 4.0 0.00 0.00 0.00 17 1006.6
20260508111036 73 275 0.0 4.0 0.00 0.00 0.00 17 1006.6
20260508110536 73 275 1.0 4.0 0.00 0.00 0.00 17 1006.6
20260508110034 74 275 1.0 3.0 0.00 0.00 0.00 17 1006.6
20260508105534 74 275 0.0 3.0 0.00 0.00 0.00 16 1006.6
20260508105034 73 275 1.0 3.0 0.00 0.00 0.00 17 1006.7
20260508104538 73 275 2.0 3.0 0.00 0.00 0.00 18 1006.7
20260508104034 73 275 2.0 3.0 0.00 0.00 0.00 18 1006.7
20260508103533 73 275 1.0 3.0 0.00 0.00 0.00 18 1006.8
20260508103044 73 275 0.0 3.0 0.00 0.00 0.00 17 1006.7
20260508102533 73 275 0.0 3.0 0.00 0.00 0.00 17 1006.7
20260508102031 73 275 1.0 3.0 0.00 0.00 0.00 17 1006.7
20260508101531 74 275 0.0 3.0 0.00 0.00 0.00 16 1006.6
20260508101033 75 275 1.0 2.0 0.00 0.00 0.00 16 1006.6
20260508100528 76 275 0.0 3.0 0.00 0.00 0.00 15 1006.6
20260508100028 77 275 1.0 4.0 0.00 0.00 0.00 15 1006.6
20260508095528 77 275 1.0 4.0 0.00 0.00 0.00 15 1006.6
20260508095027 76 275 2.0 4.0 0.00 0.00 0.00 15 1006.5
20260508094527 76 273 1.0 4.0 0.00 0.00 0.00 16 1006.5
20260508094027 76 273 0.0 2.0 0.00 0.00 0.00 16 1006.5
20260508093527 76 273 0.0 3.0 0.00 0.00 0.00 16 1006.5
20260508093036 76 273 0.0 6.0 0.00 0.00 0.00 15 1006.6
20260508092527 76 273 1.0 6.0 0.00 0.00 0.00 15 1006.6
20260508092026 76 271 0.0 4.0 0.00 0.00 0.00 15 1006.6
20260508091532 76 271 1.0 4.0 0.00 0.00 0.00 15 1006.6
20260508091028 76 271 0.0 3.0 0.00 0.00 0.00 15 1006.6
20260508090525 77 271 0.0 2.0 0.00 0.00 0.00 15 1006.6
20260508090024 77 271 0.0 3.0 0.00 0.00 0.00 14 1006.6
20260508085527 78 271 0.0 4.0 0.00 0.00 0.00 14 1006.7
20260508085023 77 269 0.0 3.0 0.00 0.00 0.00 14 1006.7
20260508084522 77 269 0.0 3.0 0.00 0.00 0.00 14 1006.7
20260508084021 77 269 1.0 3.0 0.00 0.00 0.00 14 1006.7
20260508083522 77 269 0.0 6.0 0.00 0.00 0.00 14 1006.7
20260508083021 76 269 1.0 6.0 0.00 0.00 0.00 15 1006.7
20260508082524 75 273 0.0 3.0 0.00 0.00 0.00 15 1006.7
20260508082021 75 273 0.0 3.0 0.00 0.00 0.00 15 1006.7
20260508081520 75 273 1.0 3.0 0.00 0.00 0.00 15 1006.7
20260508081021 75 273 1.0 3.0 0.00 0.00 0.00 15 1006.8
20260508080521 75 273 1.0 3.0 0.00 0.00 0.00 15 1006.9
20260508080022 75 273 0.0 2.0 0.00 0.00 0.00 14 1006.9
20260508075518 75 273 1.0 2.0 0.00 0.00 0.00 15 1006.9
20260508075016 75 273 0.0 1.0 0.00 0.00 0.00 15 1006.9
20260508074520 75 273 0.0 1.0 0.00 0.00 0.00 15 1006.9
20260508074014 76 273 0.0 1.0 0.00 0.00 0.00 14 1006.9
20260508073515 76 273 0.0 3.0 0.00 0.00 0.00 14 1006.9
20260508073013 76 273 1.0 3.0 0.00 0.00 0.00 14 1007.0
20260508072513 76 273 0.0 0.0 0.00 0.00 0.00 14 1006.9
20260508072013 77 273 0.0 1.0 0.00 0.00 0.00 13 1006.9
20260508071515 77 273 0.0 2.0 0.00 0.00 0.00 13 1006.9
20260508071011 76 273 0.0 2.0 0.00 0.00 0.00 14 1006.9
20260508070511 76 273 0.0 2.0 0.00 0.00 0.00 14 1007.0
20260508070009 76 273 0.0 0.0 0.00 0.00 0.00 13 1006.9
20260508065509 77 273 0.0 3.0 0.00 0.00 0.00 13 1006.9
20260508065011 77 273 0.0 3.0 0.00 0.00 0.00 13 1006.9
20260508064508 77 273 0.0 3.0 0.00 0.00 0.00 13 1006.9
20260508064011 77 273 0.0 4.0 0.00 0.00 0.00 13 1007.0
20260508063508 77 273 0.0 4.0 0.00 0.00 0.00 13 1006.9
20260508063013 76 273 0.0 3.0 0.00 0.00 0.00 13 1006.9
20260508062507 76 273 0.0 2.0 0.00 0.00 0.00 13 1006.9
20260508062007 76 273 0.0 2.0 0.00 0.00 0.00 13 1006.8
20260508061508 76 273 0.0 2.0 0.00 0.00 0.00 13 1006.9
20260508061012 76 273 0.0 2.0 0.00 0.00 0.00 13 1006.9
20260508060510 77 273 0.0 2.0 0.00 0.00 0.00 13 1006.9
20260508060007 77 273 0.0 2.0 0.00 0.00 0.00 13 1006.9
20260508055506 77 273 1.0 3.0 0.00 0.00 0.00 13 1006.9
20260508055008 77 273 0.0 3.0 0.00 0.00 0.00 13 1006.9
20260508054506 78 273 1.0 3.0 0.00 0.00 0.00 12 1006.9
20260508054006 78 273 0.0 2.0 0.00 0.00 0.00 12 1007.0
20260508053506 78 273 0.0 2.0 0.00 0.00 0.00 12 1007.0
20260508053006 79 273 0.0 3.0 0.00 0.00 0.00 12 1007.0
20260508052505 79 273 0.0 3.0 0.00 0.00 0.00 12 1007.0
20260508052006 78 271 1.0 3.0 0.00 0.00 0.00 12 1007.0
20260508051505 78 271 0.0 2.0 0.00 0.00 0.00 12 1007.1
20260508051005 78 271 0.0 1.0 0.00 0.00 0.00 12 1007.1
20260508050505 78 271 0.0 4.0 0.00 0.00 0.00 12 1007.1
20260508050005 78 271 0.0 4.0 0.00 0.00 0.00 13 1007.1
20260508045504 78 268 0.0 3.0 0.00 0.00 0.00 13 1007.1
20260508045004 78 267 0.0 2.0 0.00 0.00 0.00 12 1007.1
20260508044505 79 267 0.0 1.0 0.00 0.00 0.00 12 1007.2
20260508044004 79 267 0.0 3.0 0.00 0.00 0.00 12 1007.2
20260508043503 79 267 0.0 3.0 0.00 0.00 0.00 12 1007.1
20260508043004 79 268 0.0 4.0 0.00 0.00 0.00 12 1007.0
20260508042504 79 268 1.0 4.0 0.00 0.00 0.00 12 1007.0
20260508042006 79 268 1.0 5.0 0.00 0.00 0.00 12 1007.0
20260508041504 79 225 2.0 5.0 0.00 0.00 0.00 12 1007.0
20260508041003 80 220 1.0 3.0 0.00 0.00 0.00 12 1006.9
20260508040507 80 220 0.0 3.0 0.00 0.00 0.00 12 1006.9
20260508040003 80 220 0.0 2.0 0.00 0.00 0.00 13 1006.8
20260508035503 80 220 0.0 2.0 0.00 0.00 0.00 14 1006.7
20260508035004 80 220 0.0 3.0 0.00 0.00 0.00 14 1006.7
20260508034502 80 220 0.0 3.0 0.00 0.00 0.00 14 1006.7
20260508034002 80 220 0.0 2.0 0.00 0.00 0.00 14 1006.6
20260508033501 80 220 0.0 3.0 0.00 0.00 0.00 14 1006.5
20260508033003 80 220 1.0 4.0 0.00 0.00 0.00 14 1006.4
20260508032502 81 219 1.0 4.0 0.00 0.00 0.00 14 1006.4